Lake Tobesofkee Weather Center

Moon Phase Calendar



Lake Tobesofkee Water Level
Online Cameras

 


      

Current Conditions in West Point
4/21/2021 3:39:25 AM

55°F
Feels Like 55
Clear
Humidity
85%
Pressure
29.88"
Wind
5.8 mph (W)
Dew Point
51°F
UV Index
0/10 (Low)
Visibility
6 mi

Hourly Forecast

Date & Time Wed, Apr 21
3:00 AM
Wed, Apr 21
4:00 AM
Wed, Apr 21
5:00 AM
Wed, Apr 21
6:00 AM
Wed, Apr 21
7:00 AM
Wed, Apr 21
8:00 AM
Wed, Apr 21
9:00 AM
Wed, Apr 21
10:00 AM
Wed, Apr 21
11:00 AM
Wed, Apr 21
12:00 PM
Wed, Apr 21
1:00 PM
Wed, Apr 21
2:00 PM
Wed, Apr 21
3:00 PM
Wed, Apr 21
4:00 PM
Wed, Apr 21
5:00 PM
Wed, Apr 21
6:00 PM
Wed, Apr 21
7:00 PM
Wed, Apr 21
8:00 PM
Wed, Apr 21
9:00 PM
Wed, Apr 21
10:00 PM
Wed, Apr 21
11:00 PM
Thu, Apr 22
12:00 AM
Thu, Apr 22
1:00 AM
Thu, Apr 22
2:00 AM
Thu, Apr 22
3:00 AM
Thu, Apr 22
4:00 AM
Thu, Apr 22
5:00 AM
Thu, Apr 22
6:00 AM
Thu, Apr 22
7:00 AM
Thu, Apr 22
8:00 AM
Thu, Apr 22
9:00 AM
Thu, Apr 22
10:00 AM
Thu, Apr 22
11:00 AM
Thu, Apr 22
12:00 PM
Thu, Apr 22
1:00 PM
Thu, Apr 22
2:00 PM
Thu, Apr 22
3:00 PM
Thu, Apr 22
4:00 PM
Thu, Apr 22
5:00 PM
Thu, Apr 22
6:00 PM
Thu, Apr 22
7:00 PM
Thu, Apr 22
8:00 PM
Thu, Apr 22
9:00 PM
Thu, Apr 22
10:00 PM
Thu, Apr 22
11:00 PM
Fri, Apr 23
12:00 AM
Fri, Apr 23
1:00 AM
Fri, Apr 23
2:00 AM
Condition
Clear

Clear

Clear

Clear

Clear

Clear

Clear

Clear

Clear

Clear

Clear

Clear

Clear

Clear

Clear

Clear

Clear

Clear

Clear

Clear

Clear

Clouds

Clouds

Clouds

Clouds

Clouds

Clouds

Clouds

Clouds

Clouds

Clouds

Clouds

Clouds

Clouds

Clouds

Clouds

Clear

Clear

Clear

Clear

Clear

Clear

Clear

Clear

Clouds

Clouds

Clouds

Clouds
Temperature 56°F55°F55°F55°F55°F56°F58°F59°F62°F65°F67°F67°F67°F66°F65°F63°F60°F56°F53°F51°F49°F47°F46°F44°F43°F42°F41°F40°F39°F42°F47°F51°F55°F59°F61°F63°F65°F66°F66°F66°F63°F57°F54°F52°F51°F50°F49°F48°F
Feels Like 55°F55°F54°F54°F53°F54°F56°F58°F60°F63°F65°F65°F65°F64°F62°F60°F57°F52°F50°F48°F46°F44°F42°F41°F39°F38°F37°F36°F36°F39°F44°F47°F52°F56°F58°F61°F63°F64°F64°F63°F61°F55°F51°F50°F48°F48°F47°F46°F
Cloudiness 0%0%0%0%0%0%0%0%0%0%0%0%1%0%0%0%0%0%0%0%4%14%26%32%64%32%22%16%13%13%24%31%21%15%21%18%4%4%3%2%2%2%1%2%15%11%12%12%
Visibility 6 mi6 mi6 mi6 mi6 mi6 mi6 mi6 mi6 mi6 mi6 mi6 mi6 mi6 mi6 mi6 mi6 mi6 mi6 mi6 mi6 mi6 mi6 mi6 mi6 mi6 mi6 mi6 mi6 mi6 mi6 mi6 mi6 mi6 mi6 mi6 mi6 mi6 mi6 mi6 mi6 mi6 mi6 mi6 mi6 mi6 mi6 mi6 mi
Precipitation 0%0%0%0%0%0%0%0%0%0%0%0%0%0%0%0%0%0%0%0%0%0%0%0%0%0%0%0%0%0%0%0%0%0%0%0%0%0%0%0%0%0%0%0%0%0%0%0%
Humidity 81%85%81%78%75%71%63%56%50%46%42%39%28%23%24%27%31%34%36%38%39%42%43%45%47%50%52%53%54%51%42%34%29%27%26%25%25%25%26%27%34%43%46%48%50%51%53%54%
Dew Point 50°F51°F50°F48°F47°F46°F45°F44°F44°F44°F43°F41°F33°F28°F27°F29°F29°F28°F27°F26°F26°F25°F25°F24°F24°F24°F24°F24°F24°F25°F25°F24°F24°F26°F26°F27°F29°F30°F31°F31°F35°F35°F34°F34°F33°F32°F32°F32°F
Pressure 29.88"29.88"29.88"29.88"29.91"29.94"30"30"30.03"30"30"30"30"30"30"30.03"30.06"30.09"30.12"30.15"30.18"30.21"30.21"30.21"30.21"30.21"30.24"30.24"30.24"30.27"30.27"30.27"30.27"30.24"30.24"30.21"30.18"30.15"30.15"30.15"30.15"30.15"30.18"30.21"30.21"30.21"30.21"30.21"
Wind Speed 5.5 mph5.8 mph5.6 mph6.3 mph7.2 mph9 mph12.6 mph13 mph12.5 mph13.6 mph14.9 mph15.5 mph15.7 mph15.2 mph15.3 mph14.1 mph12.6 mph11.3 mph10.5 mph9.3 mph8.4 mph7.7 mph6.9 mph6.2 mph6 mph5.4 mph5 mph4.9 mph4.8 mph5 mph5.5 mph5.3 mph3.7 mph3.4 mph4.7 mph6.3 mph7.8 mph8.7 mph8.7 mph8.3 mph6.8 mph4.9 mph4.8 mph5.2 mph4.8 mph4.8 mph4.3 mph4 mph
Wind
Direction
266°
W
274°
W
268°
W
274°
W
283°
WNW
295°
WNW
301°
WNW
303°
WNW
298°
WNW
296°
WNW
296°
WNW
298°
WNW
301°
WNW
303°
WNW
307°
NW
311°
NW
314°
NW
317°
NW
322°
NW
336°
NNW
354°
N
359°
N
360°
N
358°
N
357°
N
355°
N
355°
N
359°
N
360°
N
16°
NNE
25°
NNE
28°
NNE

N
330°
NNW
304°
NW
294°
WNW
299°
WNW
300°
WNW
303°
WNW
308°
NW
314°
NW
317°
NW
322°
NW
340°
NNW
346°
NNW

N
18°
NNE
36°
NE

Daily Forecast

Date High Low Precip. Humidity
Today
Apr 21

Clear
67 °F
49 °F
0%
42%
Thursday
Apr 22

Clouds
66 °F
39 °F
0%
26%
Friday
Apr 23

Clouds
69 °F
46 °F
0%
32%
Saturday
Apr 24

Rain
75 °F
57 °F
100%
79%
Sunday
Apr 25

Clear
78 °F
55 °F
74%
38%
Monday
Apr 26

Clear
78 °F
52 °F
0%
43%
Tuesday
Apr 27

Clouds
80 °F
58 °F
0%
41%
Wednesday
Apr 28

Clouds
76 °F
55 °F
0%
46%
Thursday
Apr 29

Rain
67 °F
61 °F
83%
95%
Friday
Apr 30

Rain
73 °F
63 °F
38%
67%
Saturday
May 1

Clouds
83 °F
60 °F
0%
44%
Sunday
May 2

Clouds
85 °F
61 °F
0%
44%
Monday
May 3

Clouds
84 °F
63 °F
0%
41%
Tuesday
May 4

Clouds
86 °F
64 °F
10%
44%
Wednesday
May 5

Rain
83 °F
61 °F
97%
37%
Thursday
May 6

Clear
76 °F
53 °F
0%
29%

Temperature 8-14 Day Outlook



Precipitation 8-14 Day Outlook




Quick Links
Lake Tobesofkee News
Lake Tobesofkee Photos
Lake Tobesofkee Videos




About Us
Contact Us
Site Map
Search Site
Advertise With Us
   
Tobesofkee.LakesOnline.com
THE LAKE TOBESOFKEE WEBSITE

Copyright 2021, Lakes Online
Privacy    |    Legal